Location: Dannhausen
(51.8650°N, 10.1026°E)
Time: 09:12:54
(UTC+00:00)

Cosmos 1656 - Pass Details

Date: 09 April 2020
Orbit: 798 x 849 km, 71.1° (Epoch: 01 June)

Event Time Altitude Azimuth Distance (km) Brightness Sun altitude
Rises 19:40:11 0° 330° (NNW) 3,424 8.1 -13.9°
Reaches altitude 10° 19:42:41 10° 334° (NNW) 2,483 7.1 -14.2°
Maximum altitude 19:48:21 63° 55° (NE) 941 3.8 -14.9°
Enters shadow 19:51:49 24° 130° (SE) 1,691 4.6 -15.4°
